293  
ASUS41 KPHI 262210  
RWRPHI  
 
REGIONAL WEATHER ROUNDUP  
NATIONAL WEATHER SERVICE MOUNT HOLLY NJ  
500 PM EST SAT NOV 26 2022  
 
NOTE: "FAIR" INDICATES FEW OR NO CLOUDS BELOW 12,000 FEET WITH NO  
SIGNIFICANT WEATHER AND/OR S TO VISIBILITY
.  
 
* = STATION DOES NOT REPORT PRECIPITATION (E.G. RAIN, SNOW, ETC.)  
OR FOG.
 
 
NJZ015>026-262300-  
SOUTHERN NEW JERSEY  
 
CITY SKY/WX TMP DP RH WIND PRES REMARKS
 
POMONA CLEAR 52 31 44 W6 30.06R  
WILDWOOD* CLEAR 49 39 68 SW7 30.08R  
MILLVILLE CLEAR 49 33 54 SW3 30.06S  
WRIGHTSTOWN CLEAR 48 32 53 W5 30.01F  
MOUNT HOLLY CLEAR 54 29 38 SW7 30.04R  
TRENTON CLEAR 52 29 41 W7 30.01S  
 

 
NJZ001>014-262300-  
NORTHERN NEW JERSEY  
 
CITY SKY/WX TMP DP RH WIND PRES REMARKS
 
SUSSEX CLEAR 50 29 44 CALM 29.97S  
ANDOVER* N/A 48 30 49 CALM 29.98S  
MORRISTOWN CLEAR 54 27 35 W6 29.99R  
NEWARK PTCLDY 55 27 34 SW9 29.99R  
TETERBORO CLEAR 53 26 35 W7 29.97R  
CALDWELL CLEAR 54 23 30 CALM 29.98R  
SOMERVILLE CLEAR 53 27 36 CALM 29.98R  
ALLAIRE* CLEAR 51 30 44 W6 30.01S  
 

 
PAZ043-044-047-054-055-060>062-066>071-262300-  
EASTERN PENNSYLVANIA  
 
CITY SKY/WX TMP DP RH WIND PRES REMARKS
 
PHILADELPHIA PTCLDY 53 34 48 W10 30.05R  
NORTH PHILA CLEAR 51 29 42 W9 30.05R  
BLUE BELL* CLEAR 49 30 46 SW3 30.04R  
DOYLESTOWN CLEAR 52 28 39 SW6 30.01S  
QUAKERTOWN* CLEAR 52 28 40 W5 30.02S  
PERKASIE* FAIR 50 28 43 W3 30.03R  
LANCASTER CLEAR 54 28 36 SW3 30.04R  
COATESVILLE CLEAR 52 28 40 SW3 30.05S  
WEST CHESTER FAIR 52 30 43 W3 30.04S  
READING CLEAR 53 27 36 SW5 30.02S  
ALLENTOWN CLEAR 49 28 44 W7 30.01S  
QN CITY/ALNTWN FAIR 50 30 46 SW7 30.03R  
MOUNT POCONO CLEAR 44 29 55 W14 29.97R  
HAZLETON CLEAR 45 28 53 CALM 30.03S  
LEHIGHTON FAIR 50 27 40 CALM 30.02S  
WILKES BARRE CLEAR 50 28 42 SW9 29.99R  
 

 
DEZALL-MDZ008-012-015-019-020-262300-  
DELAWARE AND EASTERN MARYLAND  
 
CITY SKY/WX TMP DP RH WIND PRES REMARKS
 
WILMINGTON CLEAR 54 29 38 SW5 30.06S  
DOVER CLEAR 50 25 38 SW6 30.06R  
CHESWOLD CLEAR 48 32 53 SW6 30.07S  
GEORGETOWN CLEAR 54 32 43 SW5 30.08S  
EASTON CLEAR 50 34 53 CALM 30.12S  
STEVENSVILLE CLEAR 53 32 45 W3 30.08S  
PATUXENT PTCLDY 51 34 52 SW3 30.09F  
OCEAN CITY CLEAR 45 34 65 CALM 30.10R  
WALLOPS ISLAND CLEAR 49 35 58 SW5 30.12R  
CAMBRIDGE CLEAR 48 36 61 CALM 30.09S  
SALISBURY CLEAR 50 34 54 W5 30.09S  
 

 
PAZ001-021-NYZ056-072-MDZ011-DCZ001-262300-  
OTHER NEARBY LOCATIONS  
 
CITY SKY/WX TMP DP RH WIND PRES REMARKS
 
HARRISBURG PTCLDY 49 31 49 SW3 30.03F  
STATE COLLEGE PTCLDY 48 25 40 W9 30.05R  
WILLIAMSPORT CLEAR 48 27 44 SW3 30.00S  
BINGHAMTON CLEAR 46 25 43 SW9 29.93S  
NEW YORK CITY CLEAR 55 25 31 SW6 30.00R  
BALTIMORE PTCLDY 54 28 36 SW3 30.07R  
WASHINGTON DC MOCLDY 53 31 42 S7 30.08F  
 

 
 
 
CLICK HERE TO GO TO PREVIOUS BULLETINS.

The Nexlab PA Page
The Nexlab NJ Page
The Nexlab DE Page
The Nexlab MD Page Main Text Page